owner,sensor,date,latitude,longitude,vertical_datum,wind_speed,wind_to_direction,wind_speed_of_gust,qcFlag 
SCCF RECON,ioos:station:SCCF:53:1,2013-09-01T00:00:00Z,26.6493,-81.8810,2.11,3.0,163.6,-9999.0,'1111122,1111122,1111122' 
SCCF RECON,ioos:station:SCCF:53:1,2013-09-01T00:15:00Z,26.6493,-81.8810,2.11,2.8,130.9,-9999.0,'1111122,1111122,1111122' 
SCCF RECON,ioos:station:SCCF:53:1,2013-09-01T00:30:00Z,26.6493,-81.8810,2.11,3.8,125.4,-9999.0,'1111122,1111122,1111122' 
SCCF RECON,ioos:station:SCCF:53:1,2013-09-01T00:45:00Z,26.6493,-81.8810,2.11,3.6,112.7,-9999.0,'1111122,1111122,1111122' 
SCCF RECON,ioos:station:SCCF:53:1,2013-09-01T01:00:00Z,26.6493,-81.8810,2.11,3.6,142.6,-9999.0,'1111122,1111122,1111122' 
SCCF RECON,ioos:station:SCCF:53:1,2013-09-01T01:15:00Z,26.6493,-81.8810,2.11,3.9,142.8,-9999.0,'1111122,1111122,1111122' 
SCCF RECON,ioos:station:SCCF:53:1,2013-09-01T01:30:00Z,26.6493,-81.8810,2.11,3.7,124.7,-9999.0,'1111122,1111122,1111122' 
SCCF RECON,ioos:station:SCCF:53:1,2013-09-01T01:45:00Z,26.6493,-81.8810,2.11,2.6,142.8,-9999.0,'1111122,1111122,1111122' 
SCCF RECON,ioos:station:SCCF:53:1,2013-09-01T02:00:00Z,26.6493,-81.8810,2.11,2.1,126.5,-9999.0,'1111122,1111122,1111122' 
SCCF RECON,ioos:station:SCCF:53:1,2013-09-01T02:15:00Z,26.6493,-81.8810,2.11,2.6,109.2,-9999.0,'1111122,1111122,1111122' 
SCCF RECON,ioos:station:SCCF:53:1,2013-09-01T02:30:00Z,26.6493,-81.8810,2.11,1.9,91.0,-9999.0,'1111122,1111122,1111122' 
SCCF RECON,ioos:station:SCCF:53:1,2013-09-01T02:45:00Z,26.6493,-81.8810,2.11,2.6,148.5,-9999.0,'1111122,1111122,1111122' 
SCCF RECON,ioos:station:SCCF:53:1,2013-09-01T03:00:00Z,26.6493,-81.8810,2.11,1.2,87.3,-9999.0,'1111122,1111122,1111122' 
SCCF RECON,ioos:station:SCCF:53:1,2013-09-01T03:15:00Z,26.6493,-81.8810,2.11,2.5,115.0,-9999.0,'1111122,1111122,1111122' 
SCCF RECON,ioos:station:SCCF:53:1,2013-09-01T03:30:00Z,26.6493,-81.8810,2.11,0.7,106.2,-9999.0,'1111122,1111122,1111122' 
SCCF RECON,ioos:station:SCCF:53:1,2013-09-01T03:45:00Z,26.6493,-81.8810,2.11,1.5,130.1,-9999.0,'1111122,1111122,1111122' 
SCCF RECON,ioos:station:SCCF:53:1,2013-09-01T04:00:00Z,26.6493,-81.8810,2.11,1.8,140.2,-9999.0,'1111122,1111122,1111122' 
SCCF RECON,ioos:station:SCCF:53:1,2013-09-01T04:15:00Z,26.6493,-81.8810,2.11,1.8,154.9,-9999.0,'1111122,1111122,1111122' 
SCCF RECON,ioos:station:SCCF:53:1,2013-09-01T04:30:00Z,26.6493,-81.8810,2.11,1.6,146.5,-9999.0,'1111122,1111122,1111122' 
SCCF RECON,ioos:station:SCCF:53:1,2013-09-01T04:45:00Z,26.6493,-81.8810,2.11,1.6,130.0,-9999.0,'1111122,1111122,1111122' 
SCCF RECON,ioos:station:SCCF:53:1,2013-09-01T05:00:00Z,26.6493,-81.8810,2.11,2.3,148.0,-9999.0,'1111122,1111122,1111122' 
SCCF RECON,ioos:station:SCCF:53:1,2013-09-01T05:15:00Z,26.6493,-81.8810,2.11,2.6,123.1,-9999.0,'1111122,1111122,1111122' 
SCCF RECON,ioos:station:SCCF:53:1,2013-09-01T05:30:00Z,26.6493,-81.8810,2.11,3.0,139.6,-9999.0,'1111122,1111122,1111122' 
SCCF RECON,ioos:station:SCCF:53:1,2013-09-01T05:45:00Z,26.6493,-81.8810,2.11,2.1,131.2,-9999.0,'1111122,1111122,1111122' 
SCCF RECON,ioos:station:SCCF:53:1,2013-09-01T06:00:00Z,26.6493,-81.8810,2.11,2.1,140.0,-9999.0,'1111122,1111122,1111122' 
SCCF RECON,ioos:station:SCCF:53:1,2013-09-01T06:15:00Z,26.6493,-81.8810,2.11,2.2,127.5,-9999.0,'1111122,1111122,1111122' 
SCCF RECON,ioos:station:SCCF:53:1,2013-09-01T06:30:00Z,26.6493,-81.8810,2.11,1.6,154.1,-9999.0,'1111122,1111122,1111122' 
SCCF RECON,ioos:station:SCCF:53:1,2013-09-01T06:45:00Z,26.6493,-81.8810,2.11,1.8,185.7,-9999.0,'1111122,1111122,1111122' 
SCCF RECON,ioos:station:SCCF:53:1,2013-09-01T07:00:00Z,26.6493,-81.8810,2.11,0.9,244.6,-9999.0,'1111122,1111122,1111122' 
SCCF RECON,ioos:station:SCCF:53:1,2013-09-01T07:15:00Z,26.6493,-81.8810,2.11,1.1,121.7,-9999.0,'1111122,1111122,1111122' 
SCCF RECON,ioos:station:SCCF:53:1,2013-09-01T07:30:00Z,26.6493,-81.8810,2.11,1.3,118.0,-9999.0,'1111122,1111122,1111122' 
SCCF RECON,ioos:station:SCCF:53:1,2013-09-01T07:45:00Z,26.6493,-81.8810,2.11,1.4,99.9,-9999.0,'1111122,1111122,1111122' 
SCCF RECON,ioos:station:SCCF:53:1,2013-09-01T08:00:00Z,26.6493,-81.8810,2.11,2.6,140.5,-9999.0,'1111122,1111122,1111122' 
SCCF RECON,ioos:station:SCCF:53:1,2013-09-01T08:15:00Z,26.6493,-81.8810,2.11,2.6,127.9,-9999.0,'1111122,1111122,1111122' 
SCCF RECON,ioos:station:SCCF:53:1,2013-09-01T08:30:00Z,26.6493,-81.8810,2.11,2.2,142.9,-9999.0,'1111122,1111122,1111122' 
SCCF RECON,ioos:station:SCCF:53:1,2013-09-01T08:45:00Z,26.6493,-81.8810,2.11,2.4,135.5,-9999.0,'1111122,1111122,1111122' 
SCCF RECON,ioos:station:SCCF:53:1,2013-09-01T09:00:00Z,26.6493,-81.8810,2.11,1.8,230.3,-9999.0,'1111122,1111122,1111122' 
SCCF RECON,ioos:station:SCCF:53:1,2013-09-01T09:15:00Z,26.6493,-81.8810,2.11,1.7,177.1,-9999.0,'1111122,1111122,1111122' 
SCCF RECON,ioos:station:SCCF:53:1,2013-09-01T09:30:00Z,26.6493,-81.8810,2.11,1.4,193.1,-9999.0,'1111122,1111122,1111122' 
SCCF RECON,ioos:station:SCCF:53:1,2013-09-01T09:45:00Z,26.6493,-81.8810,2.11,1.5,125.6,-9999.0,'1111122,1111122,1111122' 
SCCF RECON,ioos:station:SCCF:53:1,2013-09-01T10:00:00Z,26.6493,-81.8810,2.11,1.1,134.5,-9999.0,'1111122,1111122,1111122' 
SCCF RECON,ioos:station:SCCF:53:1,2013-09-01T10:15:00Z,26.6493,-81.8810,2.11,1.6,124.6,-9999.0,'1111122,1111122,1111122' 
SCCF RECON,ioos:station:SCCF:53:1,2013-09-01T10:30:00Z,26.6493,-81.8810,2.11,2.1,107.7,-9999.0,'1111122,1111122,1111122' 
SCCF RECON,ioos:station:SCCF:53:1,2013-09-01T10:45:00Z,26.6493,-81.8810,2.11,2.5,140.3,-9999.0,'1111122,1111122,1111122' 
SCCF RECON,ioos:station:SCCF:53:1,2013-09-01T11:00:00Z,26.6493,-81.8810,2.11,2.2,151.0,-9999.0,'1111122,1111122,1111122' 
SCCF RECON,ioos:station:SCCF:53:1,2013-09-01T11:15:00Z,26.6493,-81.8810,2.11,1.7,139.2,-9999.0,'1111122,1111122,1111122' 
SCCF RECON,ioos:station:SCCF:53:1,2013-09-01T11:30:00Z,26.6493,-81.8810,2.11,1.9,152.1,-9999.0,'1111122,1111122,1111122' 
SCCF RECON,ioos:station:SCCF:53:1,2013-09-01T11:45:00Z,26.6493,-81.8810,2.11,1.0,135.1,-9999.0,'1111122,1111122,1111122' 
SCCF RECON,ioos:station:SCCF:53:1,2013-09-01T12:00:00Z,26.6493,-81.8810,2.11,2.0,140.2,-9999.0,'1111122,1111122,1111122' 
SCCF RECON,ioos:station:SCCF:53:1,2013-09-01T12:15:00Z,26.6493,-81.8810,2.11,1.9,137.9,-9999.0,'1111122,1111122,1111122' 
SCCF RECON,ioos:station:SCCF:53:1,2013-09-01T12:30:00Z,26.6493,-81.8810,2.11,3.0,150.0,-9999.0,'1111122,1111122,1111122' 
SCCF RECON,ioos:station:SCCF:53:1,2013-09-01T12:45:00Z,26.6493,-81.8810,2.11,2.3,131.9,-9999.0,'1111122,1111122,1111122' 
SCCF RECON,ioos:station:SCCF:53:1,2013-09-01T13:00:00Z,26.6493,-81.8810,2.11,1.6,128.6,-9999.0,'1111122,1111122,1111122' 
SCCF RECON,ioos:station:SCCF:53:1,2013-09-01T13:15:00Z,26.6493,-81.8810,2.11,0.3,237.3,-9999.0,'1111122,1111122,1111122' 
SCCF RECON,ioos:station:SCCF:53:1,2013-09-01T13:30:00Z,26.6493,-81.8810,2.11,1.0,270.6,-9999.0,'1111122,1111122,1111122' 
SCCF RECON,ioos:station:SCCF:53:1,2013-09-01T13:45:00Z,26.6493,-81.8810,2.11,1.0,293.7,-9999.0,'1111122,1111122,1111122' 
SCCF RECON,ioos:station:SCCF:53:1,2013-09-01T14:00:00Z,26.6493,-81.8810,2.11,0.7,345.6,-9999.0,'1111122,1111122,1111122' 
SCCF RECON,ioos:station:SCCF:53:1,2013-09-01T14:15:00Z,26.6493,-81.8810,2.11,0.6,327.5,-9999.0,'1111122,1111122,1111122' 
SCCF RECON,ioos:station:SCCF:53:1,2013-09-01T14:30:00Z,26.6493,-81.8810,2.11,0.5,288.5,-9999.0,'1111122,1111122,1111122' 
SCCF RECON,ioos:station:SCCF:53:1,2013-09-01T14:45:00Z,26.6493,-81.8810,2.11,0.4,299.9,-9999.0,'1111122,1111122,1111122' 
SCCF RECON,ioos:station:SCCF:53:1,2013-09-01T15:00:00Z,26.6493,-81.8810,2.11,0.3,266.4,-9999.0,'1111122,1111122,1111122' 
SCCF RECON,ioos:station:SCCF:53:1,2013-09-01T15:15:00Z,26.6493,-81.8810,2.11,1.6,222.7,-9999.0,'1111122,1111122,1111122' 
SCCF RECON,ioos:station:SCCF:53:1,2013-09-01T15:30:00Z,26.6493,-81.8810,2.11,2.3,228.8,-9999.0,'1111122,1111122,1111122' 
SCCF RECON,ioos:station:SCCF:53:1,2013-09-01T15:45:00Z,26.6493,-81.8810,2.11,2.2,186.6,-9999.0,'1111122,1111122,1111122' 
SCCF RECON,ioos:station:SCCF:53:1,2013-09-01T16:00:00Z,26.6493,-81.8810,2.11,2.2,208.3,-9999.0,'1111122,1111122,1111122' 
SCCF RECON,ioos:station:SCCF:53:1,2013-09-01T16:15:00Z,26.6493,-81.8810,2.11,2.1,228.2,-9999.0,'1111122,1111122,1111122' 
SCCF RECON,ioos:station:SCCF:53:1,2013-09-01T16:30:00Z,26.6493,-81.8810,2.11,2.9,219.7,-9999.0,'1111122,1111122,1111122' 
SCCF RECON,ioos:station:SCCF:53:1,2013-09-01T16:45:00Z,26.6493,-81.8810,2.11,2.5,229.0,-9999.0,'1111122,1111122,1111122' 
SCCF RECON,ioos:station:SCCF:53:1,2013-09-01T17:00:00Z,26.6493,-81.8810,2.11,2.5,230.0,-9999.0,'1111122,1111122,1111122' 
SCCF RECON,ioos:station:SCCF:53:1,2013-09-01T17:15:00Z,26.6493,-81.8810,2.11,2.7,213.5,-9999.0,'1111122,1111122,1111122' 
SCCF RECON,ioos:station:SCCF:53:1,2013-09-01T17:30:00Z,26.6493,-81.8810,2.11,2.8,206.7,-9999.0,'1111122,1111122,1111122' 
SCCF RECON,ioos:station:SCCF:53:1,2013-09-01T17:45:00Z,26.6493,-81.8810,2.11,3.2,213.5,-9999.0,'1111122,1111122,1111122' 
SCCF RECON,ioos:station:SCCF:53:1,2013-09-01T18:00:00Z,26.6493,-81.8810,2.11,3.2,214.0,-9999.0,'1111122,1111122,1111122' 
SCCF RECON,ioos:station:SCCF:53:1,2013-09-01T18:15:00Z,26.6493,-81.8810,2.11,2.7,227.6,-9999.0,'1111122,1111122,1111122' 
SCCF RECON,ioos:station:SCCF:53:1,2013-09-01T18:30:00Z,26.6493,-81.8810,2.11,3.8,219.1,-9999.0,'1111122,1111122,1111122' 
SCCF RECON,ioos:station:SCCF:53:1,2013-09-01T18:45:00Z,26.6493,-81.8810,2.11,4.3,211.4,-9999.0,'1111122,1111122,1111122' 
SCCF RECON,ioos:station:SCCF:53:1,2013-09-01T19:00:00Z,26.6493,-81.8810,2.11,5.7,221.0,-9999.0,'1111122,1111122,1111122' 
SCCF RECON,ioos:station:SCCF:53:1,2013-09-01T19:15:00Z,26.6493,-81.8810,2.11,5.5,205.5,-9999.0,'1111122,1111122,1111122' 
SCCF RECON,ioos:station:SCCF:53:1,2013-09-01T19:30:00Z,26.6493,-81.8810,2.11,5.7,203.1,-9999.0,'1111122,1111122,1111122' 
SCCF RECON,ioos:station:SCCF:53:1,2013-09-01T19:45:00Z,26.6493,-81.8810,2.11,7.7,205.5,-9999.0,'1111122,1111122,1111122' 
SCCF RECON,ioos:station:SCCF:53:1,2013-09-01T20:00:00Z,26.6493,-81.8810,2.11,7.9,214.8,-9999.0,'1111122,1111122,1111122' 
SCCF RECON,ioos:station:SCCF:53:1,2013-09-01T20:15:00Z,26.6493,-81.8810,2.11,6.4,218.0,-9999.0,'1111122,1111122,1111122' 
SCCF RECON,ioos:station:SCCF:53:1,2013-09-01T20:30:00Z,26.6493,-81.8810,2.11,3.8,59.0,-9999.0,'1111122,1111122,1111122' 
SCCF RECON,ioos:station:SCCF:53:1,2013-09-01T20:45:00Z,26.6493,-81.8810,2.11,8.2,102.3,-9999.0,'1111122,1111122,1111122' 
SCCF RECON,ioos:station:SCCF:53:1,2013-09-01T21:00:00Z,26.6493,-81.8810,2.11,9.8,73.6,-9999.0,'1111122,1111122,1111122' 
SCCF RECON,ioos:station:SCCF:53:1,2013-09-01T21:15:00Z,26.6493,-81.8810,2.11,6.4,64.8,-9999.0,'1111122,1111122,1111122' 
SCCF RECON,ioos:station:SCCF:53:1,2013-09-01T21:30:00Z,26.6493,-81.8810,2.11,7.2,49.0,-9999.0,'1111122,1111122,1111122' 
SCCF RECON,ioos:station:SCCF:53:1,2013-09-01T21:45:00Z,26.6493,-81.8810,2.11,8.4,57.6,-9999.0,'1111122,1111122,1111122' 
SCCF RECON,ioos:station:SCCF:53:1,2013-09-01T22:00:00Z,26.6493,-81.8810,2.11,6.7,45.9,-9999.0,'1111122,1111122,1111122' 
SCCF RECON,ioos:station:SCCF:53:1,2013-09-01T22:15:00Z,26.6493,-81.8810,2.11,6.2,48.9,-9999.0,'1111122,1111122,1111122' 
SCCF RECON,ioos:station:SCCF:53:1,2013-09-01T22:30:00Z,26.6493,-81.8810,2.11,3.6,75.0,-9999.0,'1111122,1111122,1111122' 
SCCF RECON,ioos:station:SCCF:53:1,2013-09-01T22:45:00Z,26.6493,-81.8810,2.11,1.6,143.9,-9999.0,'1111122,1111122,1111122' 
SCCF RECON,ioos:station:SCCF:53:1,2013-09-01T23:00:00Z,26.6493,-81.8810,2.11,1.8,125.7,-9999.0,'1111122,1111122,1111122' 
SCCF RECON,ioos:station:SCCF:53:1,2013-09-01T23:15:00Z,26.6493,-81.8810,2.11,-9999.0,7.8,-9999.0,'1111122,1111122,1111122' 
SCCF RECON,ioos:station:SCCF:53:1,2013-09-01T23:30:00Z,26.6493,-81.8810,2.11,1.5,172.3,-9999.0,'1111122,1111122,1111122' 
SCCF RECON,ioos:station:SCCF:53:1,2013-09-01T23:45:00Z,26.6493,-81.8810,2.11,1.6,127.3,-9999.0,'1111122,1111122,1111122' 
SCCF RECON,ioos:station:SCCF:53:1,2013-09-02T00:00:00Z,26.6493,-81.8810,2.11,2.2,140.3,-9999.0,'1111122,1111122,1111122' 
SCCF RECON,ioos:station:SCCF:53:1,2013-09-02T00:15:00Z,26.6493,-81.8810,2.11,1.9,106.5,-9999.0,'1111122,1111122,1111122' 
SCCF RECON,ioos:station:SCCF:53:1,2013-09-02T00:30:00Z,26.6493,-81.8810,2.11,1.8,110.1,-9999.0,'1111122,1111122,1111122' 
SCCF RECON,ioos:station:SCCF:53:1,2013-09-02T00:45:00Z,26.6493,-81.8810,2.11,2.1,114.7,-9999.0,'1111122,1111122,1111122' 
SCCF RECON,ioos:station:SCCF:53:1,2013-09-02T01:00:00Z,26.6493,-81.8810,2.11,1.5,110.6,-9999.0,'1111122,1111122,1111122' 
SCCF RECON,ioos:station:SCCF:53:1,2013-09-02T01:15:00Z,26.6493,-81.8810,2.11,0.9,71.6,-9999.0,'1111122,1111122,1111122' 
SCCF RECON,ioos:station:SCCF:53:1,2013-09-02T01:30:00Z,26.6493,-81.8810,2.11,1.4,84.7,-9999.0,'1111122,1111122,1111122' 
SCCF RECON,ioos:station:SCCF:53:1,2013-09-02T01:45:00Z,26.6493,-81.8810,2.11,2.0,70.0,-9999.0,'1111122,1111122,1111122' 
SCCF RECON,ioos:station:SCCF:53:1,2013-09-02T02:00:00Z,26.6493,-81.8810,2.11,1.3,76.1,-9999.0,'1111122,1111122,1111122' 
SCCF RECON,ioos:station:SCCF:53:1,2013-09-02T02:15:00Z,26.6493,-81.8810,2.11,1.1,129.6,-9999.0,'1111122,1111122,1111122' 
SCCF RECON,ioos:station:SCCF:53:1,2013-09-02T02:30:00Z,26.6493,-81.8810,2.11,1.9,145.4,-9999.0,'1111122,1111122,1111122' 
SCCF RECON,ioos:station:SCCF:53:1,2013-09-02T02:45:00Z,26.6493,-81.8810,2.11,0.4,140.5,-9999.0,'1111122,1111122,1111122' 
SCCF RECON,ioos:station:SCCF:53:1,2013-09-02T03:00:00Z,26.6493,-81.8810,2.11,1.4,182.6,-9999.0,'1111122,1111122,1111122' 
SCCF RECON,ioos:station:SCCF:53:1,2013-09-02T03:15:00Z,26.6493,-81.8810,2.11,1.7,202.3,-9999.0,'1111122,1111122,1111122' 
SCCF RECON,ioos:station:SCCF:53:1,2013-09-02T03:30:00Z,26.6493,-81.8810,2.11,1.2,111.8,-9999.0,'1111122,1111122,1111122' 
SCCF RECON,ioos:station:SCCF:53:1,2013-09-02T03:45:00Z,26.6493,-81.8810,2.11,1.2,144.7,-9999.0,'1111122,1111122,1111122' 
SCCF RECON,ioos:station:SCCF:53:1,2013-09-02T04:00:00Z,26.6493,-81.8810,2.11,0.5,242.0,-9999.0,'1111122,1111122,1111122' 
SCCF RECON,ioos:station:SCCF:53:1,2013-09-02T04:15:00Z,26.6493,-81.8810,2.11,1.9,178.5,-9999.0,'1111122,1111122,1111122' 
SCCF RECON,ioos:station:SCCF:53:1,2013-09-02T04:30:00Z,26.6493,-81.8810,2.11,2.1,141.8,-9999.0,'1111122,1111122,1111122' 
SCCF RECON,ioos:station:SCCF:53:1,2013-09-02T04:45:00Z,26.6493,-81.8810,2.11,2.9,130.5,-9999.0,'1111122,1111122,1111122' 
SCCF RECON,ioos:station:SCCF:53:1,2013-09-02T05:00:00Z,26.6493,-81.8810,2.11,2.5,114.0,-9999.0,'1111122,1111122,1111122' 
SCCF RECON,ioos:station:SCCF:53:1,2013-09-02T05:15:00Z,26.6493,-81.8810,2.11,2.3,140.5,-9999.0,'1111122,1111122,1111122' 
SCCF RECON,ioos:station:SCCF:53:1,2013-09-02T05:30:00Z,26.6493,-81.8810,2.11,2.8,124.5,-9999.0,'1111122,1111122,1111122' 
SCCF RECON,ioos:station:SCCF:53:1,2013-09-02T05:45:00Z,26.6493,-81.8810,2.11,2.6,141.0,-9999.0,'1111122,1111122,1111122' 
SCCF RECON,ioos:station:SCCF:53:1,2013-09-02T06:00:00Z,26.6493,-81.8810,2.11,1.7,80.4,-9999.0,'1111122,1111122,1111122' 
SCCF RECON,ioos:station:SCCF:53:1,2013-09-02T06:15:00Z,26.6493,-81.8810,2.11,1.7,68.8,-9999.0,'1111122,1111122,1111122' 
SCCF RECON,ioos:station:SCCF:53:1,2013-09-02T06:30:00Z,26.6493,-81.8810,2.11,1.8,63.4,-9999.0,'1111122,1111122,1111122' 
SCCF RECON,ioos:station:SCCF:53:1,2013-09-02T06:45:00Z,26.6493,-81.8810,2.11,1.7,81.1,-9999.0,'1111122,1111122,1111122' 
SCCF RECON,ioos:station:SCCF:53:1,2013-09-02T07:00:00Z,26.6493,-81.8810,2.11,2.0,79.7,-9999.0,'1111122,1111122,1111122' 
SCCF RECON,ioos:station:SCCF:53:1,2013-09-02T07:15:00Z,26.6493,-81.8810,2.11,1.4,83.7,-9999.0,'1111122,1111122,1111122' 
SCCF RECON,ioos:station:SCCF:53:1,2013-09-02T07:30:00Z,26.6493,-81.8810,2.11,1.1,81.4,-9999.0,'1111122,1111122,1111122' 
SCCF RECON,ioos:station:SCCF:53:1,2013-09-02T07:45:00Z,26.6493,-81.8810,2.11,1.7,133.8,-9999.0,'1111122,1111122,1111122' 
SCCF RECON,ioos:station:SCCF:53:1,2013-09-02T08:00:00Z,26.6493,-81.8810,2.11,2.0,133.2,-9999.0,'1111122,1111122,1111122' 
SCCF RECON,ioos:station:SCCF:53:1,2013-09-02T08:15:00Z,26.6493,-81.8810,2.11,2.2,136.9,-9999.0,'1111122,1111122,1111122' 
SCCF RECON,ioos:station:SCCF:53:1,2013-09-02T08:30:00Z,26.6493,-81.8810,2.11,1.4,114.2,-9999.0,'1111122,1111122,1111122' 
SCCF RECON,ioos:station:SCCF:53:1,2013-09-02T08:45:00Z,26.6493,-81.8810,2.11,2.8,94.8,-9999.0,'1111122,1111122,1111122' 
SCCF RECON,ioos:station:SCCF:53:1,2013-09-02T09:00:00Z,26.6493,-81.8810,2.11,1.8,68.5,-9999.0,'1111122,1111122,1111122' 
SCCF RECON,ioos:station:SCCF:53:1,2013-09-02T09:15:00Z,26.6493,-81.8810,2.11,1.2,152.4,-9999.0,'1111122,1111122,1111122' 
SCCF RECON,ioos:station:SCCF:53:1,2013-09-02T09:30:00Z,26.6493,-81.8810,2.11,1.5,79.5,-9999.0,'1111122,1111122,1111122' 
SCCF RECON,ioos:station:SCCF:53:1,2013-09-02T09:45:00Z,26.6493,-81.8810,2.11,1.7,38.9,-9999.0,'1111122,1111122,1111122' 
SCCF RECON,ioos:station:SCCF:53:1,2013-09-02T10:00:00Z,26.6493,-81.8810,2.11,1.9,65.0,-9999.0,'1111122,1111122,1111122' 
SCCF RECON,ioos:station:SCCF:53:1,2013-09-02T10:15:00Z,26.6493,-81.8810,2.11,1.9,72.6,-9999.0,'1111122,1111122,1111122' 
SCCF RECON,ioos:station:SCCF:53:1,2013-09-02T10:30:00Z,26.6493,-81.8810,2.11,1.5,131.6,-9999.0,'1111122,1111122,1111122' 
SCCF RECON,ioos:station:SCCF:53:1,2013-09-02T10:45:00Z,26.6493,-81.8810,2.11,1.3,113.7,-9999.0,'1111122,1111122,1111122' 
SCCF RECON,ioos:station:SCCF:53:1,2013-09-02T11:00:00Z,26.6493,-81.8810,2.11,1.5,122.9,-9999.0,'1111122,1111122,1111122' 
SCCF RECON,ioos:station:SCCF:53:1,2013-09-02T11:15:00Z,26.6493,-81.8810,2.11,1.8,100.9,-9999.0,'1111122,1111122,1111122' 
SCCF RECON,ioos:station:SCCF:53:1,2013-09-02T11:30:00Z,26.6493,-81.8810,2.11,1.2,49.5,-9999.0,'1111122,1111122,1111122' 
SCCF RECON,ioos:station:SCCF:53:1,2013-09-02T11:45:00Z,26.6493,-81.8810,2.11,1.6,113.0,-9999.0,'1111122,1111122,1111122' 
SCCF RECON,ioos:station:SCCF:53:1,2013-09-02T12:00:00Z,26.6493,-81.8810,2.11,1.8,75.9,-9999.0,'1111122,1111122,1111122' 
SCCF RECON,ioos:station:SCCF:53:1,2013-09-02T12:15:00Z,26.6493,-81.8810,2.11,0.6,111.3,-9999.0,'1111122,1111122,1111122' 
SCCF RECON,ioos:station:SCCF:53:1,2013-09-02T12:30:00Z,26.6493,-81.8810,2.11,1.2,138.0,-9999.0,'1111122,1111122,1111122' 
SCCF RECON,ioos:station:SCCF:53:1,2013-09-02T12:45:00Z,26.6493,-81.8810,2.11,0.7,37.7,-9999.0,'1111122,1111122,1111122' 
SCCF RECON,ioos:station:SCCF:53:1,2013-09-02T13:00:00Z,26.6493,-81.8810,2.11,0.6,43.7,-9999.0,'1111122,1111122,1111122' 
SCCF RECON,ioos:station:SCCF:53:1,2013-09-02T13:15:00Z,26.6493,-81.8810,2.11,1.1,124.1,-9999.0,'1111122,1111122,1111122' 
SCCF RECON,ioos:station:SCCF:53:1,2013-09-02T13:30:00Z,26.6493,-81.8810,2.11,1.6,24.2,-9999.0,'1111122,1111122,1111122' 
SCCF RECON,ioos:station:SCCF:53:1,2013-09-02T13:45:00Z,26.6493,-81.8810,2.11,0.3,12.1,-9999.0,'1111122,1111122,1111122' 
SCCF RECON,ioos:station:SCCF:53:1,2013-09-02T14:00:00Z,26.6493,-81.8810,2.11,1.7,12.9,-9999.0,'1111122,1111122,1111122' 
SCCF RECON,ioos:station:SCCF:53:1,2013-09-02T14:15:00Z,26.6493,-81.8810,2.11,1.6,21.4,-9999.0,'1111122,1111122,1111122' 
SCCF RECON,ioos:station:SCCF:53:1,2013-09-02T14:30:00Z,26.6493,-81.8810,2.11,0.9,46.8,-9999.0,'1111122,1111122,1111122' 
SCCF RECON,ioos:station:SCCF:53:1,2013-09-02T14:45:00Z,26.6493,-81.8810,2.11,0.5,251.7,-9999.0,'1111122,1111122,1111122' 
SCCF RECON,ioos:station:SCCF:53:1,2013-09-02T15:00:00Z,26.6493,-81.8810,2.11,1.3,250.0,-9999.0,'1111122,1111122,1111122' 
SCCF RECON,ioos:station:SCCF:53:1,2013-09-02T15:15:00Z,26.6493,-81.8810,2.11,5.2,263.2,-9999.0,'1111122,1111122,1111122' 
SCCF RECON,ioos:station:SCCF:53:1,2013-09-02T15:30:00Z,26.6493,-81.8810,2.11,1.8,321.8,-9999.0,'1111122,1111122,1111122' 
SCCF RECON,ioos:station:SCCF:53:1,2013-09-02T15:45:00Z,26.6493,-81.8810,2.11,1.8,233.8,-9999.0,'1111122,1111122,1111122' 
SCCF RECON,ioos:station:SCCF:53:1,2013-09-02T16:00:00Z,26.6493,-81.8810,2.11,4.5,212.1,-9999.0,'1111122,1111122,1111122' 
SCCF RECON,ioos:station:SCCF:53:1,2013-09-02T16:15:00Z,26.6493,-81.8810,2.11,1.9,205.3,-9999.0,'1111122,1111122,1111122' 
SCCF RECON,ioos:station:SCCF:53:1,2013-09-02T16:30:00Z,26.6493,-81.8810,2.11,-9999.0,126.9,-9999.0,'1111122,1111122,1111122' 
SCCF RECON,ioos:station:SCCF:53:1,2013-09-02T16:45:00Z,26.6493,-81.8810,2.11,0.7,247.6,-9999.0,'1111122,1111122,1111122' 
SCCF RECON,ioos:station:SCCF:53:1,2013-09-02T17:00:00Z,26.6493,-81.8810,2.11,-9999.0,198.5,-9999.0,'1111122,1111122,1111122' 
SCCF RECON,ioos:station:SCCF:53:1,2013-09-02T17:15:00Z,26.6493,-81.8810,2.11,1.1,212.6,-9999.0,'1111122,1111122,1111122' 
SCCF RECON,ioos:station:SCCF:53:1,2013-09-02T17:30:00Z,26.6493,-81.8810,2.11,3.7,204.3,-9999.0,'1111122,1111122,1111122' 
SCCF RECON,ioos:station:SCCF:53:1,2013-09-02T17:45:00Z,26.6493,-81.8810,2.11,3.6,200.1,-9999.0,'1111122,1111122,1111122' 
SCCF RECON,ioos:station:SCCF:53:1,2013-09-02T18:00:00Z,26.6493,-81.8810,2.11,3.5,231.0,-9999.0,'1111122,1111122,1111122' 
SCCF RECON,ioos:station:SCCF:53:1,2013-09-02T18:15:00Z,26.6493,-81.8810,2.11,3.6,222.8,-9999.0,'1111122,1111122,1111122' 
SCCF RECON,ioos:station:SCCF:53:1,2013-09-02T18:30:00Z,26.6493,-81.8810,2.11,3.5,170.6,-9999.0,'1111122,1111122,1111122' 
SCCF RECON,ioos:station:SCCF:53:1,2013-09-02T18:45:00Z,26.6493,-81.8810,2.11,4.0,176.2,-9999.0,'1111122,1111122,1111122' 
SCCF RECON,ioos:station:SCCF:53:1,2013-09-02T19:00:00Z,26.6493,-81.8810,2.11,4.4,171.8,-9999.0,'1111122,1111122,1111122' 
SCCF RECON,ioos:station:SCCF:53:1,2013-09-02T19:15:00Z,26.6493,-81.8810,2.11,5.3,160.8,-9999.0,'1111122,1111122,1111122' 
SCCF RECON,ioos:station:SCCF:53:1,2013-09-02T19:30:00Z,26.6493,-81.8810,2.11,3.0,142.2,-9999.0,'1111122,1111122,1111122' 
SCCF RECON,ioos:station:SCCF:53:1,2013-09-02T19:45:00Z,26.6493,-81.8810,2.11,1.0,93.0,-9999.0,'1111122,1111122,1111122' 
SCCF RECON,ioos:station:SCCF:53:1,2013-09-02T20:00:00Z,26.6493,-81.8810,2.11,5.3,74.4,-9999.0,'1111122,1111122,1111122' 
SCCF RECON,ioos:station:SCCF:53:1,2013-09-02T20:15:00Z,26.6493,-81.8810,2.11,3.1,106.5,-9999.0,'1111122,1111122,1111122' 
SCCF RECON,ioos:station:SCCF:53:1,2013-09-02T20:30:00Z,26.6493,-81.8810,2.11,2.4,110.8,-9999.0,'1111122,1111122,1111122' 
SCCF RECON,ioos:station:SCCF:53:1,2013-09-02T20:45:00Z,26.6493,-81.8810,2.11,3.0,96.5,-9999.0,'1111122,1111122,1111122' 
SCCF RECON,ioos:station:SCCF:53:1,2013-09-02T21:00:00Z,26.6493,-81.8810,2.11,3.6,157.6,-9999.0,'1111122,1111122,1111122' 
SCCF RECON,ioos:station:SCCF:53:1,2013-09-02T21:15:00Z,26.6493,-81.8810,2.11,4.8,144.2,-9999.0,'1111122,1111122,1111122' 
SCCF RECON,ioos:station:SCCF:53:1,2013-09-02T21:30:00Z,26.6493,-81.8810,2.11,1.1,108.4,-9999.0,'1111122,1111122,1111122' 
SCCF RECON,ioos:station:SCCF:53:1,2013-09-02T21:45:00Z,26.6493,-81.8810,2.11,2.0,121.1,-9999.0,'1111122,1111122,1111122' 
SCCF RECON,ioos:station:SCCF:53:1,2013-09-02T22:00:00Z,26.6493,-81.8810,2.11,1.1,100.5,-9999.0,'1111122,1111122,1111122' 
SCCF RECON,ioos:station:SCCF:53:1,2013-09-02T22:15:00Z,26.6493,-81.8810,2.11,1.0,38.5,-9999.0,'1111122,1111122,1111122' 
SCCF RECON,ioos:station:SCCF:53:1,2013-09-02T22:30:00Z,26.6493,-81.8810,2.11,1.9,23.3,-9999.0,'1111122,1111122,1111122' 
SCCF RECON,ioos:station:SCCF:53:1,2013-09-02T22:45:00Z,26.6493,-81.8810,2.11,2.0,28.0,-9999.0,'1111122,1111122,1111122' 
SCCF RECON,ioos:station:SCCF:53:1,2013-09-02T23:00:00Z,26.6493,-81.8810,2.11,2.2,51.1,-9999.0,'1111122,1111122,1111122' 
SCCF RECON,ioos:station:SCCF:53:1,2013-09-02T23:15:00Z,26.6493,-81.8810,2.11,1.9,110.7,-9999.0,'1111122,1111122,1111122' 
SCCF RECON,ioos:station:SCCF:53:1,2013-09-02T23:30:00Z,26.6493,-81.8810,2.11,1.7,54.9,-9999.0,'1111122,1111122,1111122' 
SCCF RECON,ioos:station:SCCF:53:1,2013-09-02T23:45:00Z,26.6493,-81.8810,2.11,1.5,92.9,-9999.0,'1111122,1111122,1111122' 
SCCF RECON,ioos:station:SCCF:53:1,2013-09-03T00:00:00Z,26.6493,-81.8810,2.11,1.7,135.6,-9999.0,'1111122,1111122,1111122' 
SCCF RECON,ioos:station:SCCF:53:1,2013-09-03T00:15:00Z,26.6493,-81.8810,2.11,1.9,126.7,-9999.0,'1111122,1111122,1111122' 
SCCF RECON,ioos:station:SCCF:53:1,2013-09-03T00:30:00Z,26.6493,-81.8810,2.11,2.2,126.6,-9999.0,'1111122,1111122,1111122' 
SCCF RECON,ioos:station:SCCF:53:1,2013-09-03T00:45:00Z,26.6493,-81.8810,2.11,1.4,103.1,-9999.0,'1111122,1111122,1111122' 